| time (UTC) | temp C | wind direction | speed KPH | gust KPH | rain 1hr cm | rain 24hr cm | rain mn cm | humidity % | barometer mb |
| 20260906195602 | 32 | 94 | 11.3 | 16.1 | 0.00 | 0.00 | 0.00 | 47 | 1014.0 |
| 20260906195017 | 32 | 109 | 11.3 | 16.1 | 0.00 | 0.00 | 0.00 | 48 | 1014.1 |
| 20260906194654 | 32 | 82 | 8.0 | 16.1 | 0.00 | 0.00 | 0.00 | 48 | 1014.1 |
| 20260906194034 | 32 | 92 | 9.7 | 16.1 | 0.00 | 0.00 | 0.00 | 48 | 1014.2 |
| 20260906193542 | 32 | 98 | 4.8 | 12.9 | 0.00 | 0.00 | 0.00 | 48 | 1014.5 |
| 20260906193124 | 32 | 106 | 6.4 | 12.9 | 0.00 | 0.00 | 0.00 | 48 | 1014.6 |
| 20260906192719 | 32 | 58 | 6.4 | 12.9 | 0.00 | 0.00 | 0.00 | 47 | 1014.7 |
| 20260906192024 | 32 | 94 | 6.4 | 14.5 | 0.00 | 0.00 | 0.00 | 47 | 1014.7 |
| 20260906191640 | 32 | 63 | 1.6 | 17.7 | 0.00 | 0.00 | 0.00 | 47 | 1014.7 |
| 20260906191041 | 32 | 101 | 4.8 | 17.7 | 0.00 | 0.00 | 0.00 | 46 | 1014.9 |
| 20260906190544 | 33 | 83 | 4.8 | 12.9 | 0.00 | 0.00 | 0.00 | 47 | 1015.0 |
| 20260906190217 | 33 | 103 | 4.8 | 12.9 | 0.00 | 0.00 | 0.00 | 46 | 1015.1 |
| 20260906185719 | 33 | 82 | 1.6 | 12.9 | 0.00 | 0.00 | 0.00 | 47 | 1015.2 |
| 20260906185032 | 32 | 40 | 0.0 | 6.4 | 0.00 | 0.00 | 0.00 | 49 | 1015.2 |
| 20260906184625 | 32 | 360 | 1.6 | 12.9 | 0.00 | 0.00 | 0.00 | 47 | 1015.4 |
| 20260906184038 | 32 | 67 | 1.6 | 12.9 | 0.00 | 0.00 | 0.00 | 47 | 1015.5 |
| 20260906183542 | 32 | 67 | 0.0 | 8.0 | 0.00 | 0.00 | 0.00 | 48 | 1015.6 |
| 20260906183127 | 32 | 65 | 1.6 | 9.7 | 0.00 | 0.00 | 0.00 | 47 | 1015.7 |
| 20260906182520 | 32 | 14 | 4.8 | 9.7 | 0.00 | 0.00 | 0.00 | 47 | 1015.8 |
| 20260906182042 | 32 | 61 | 1.6 | 14.5 | 0.00 | 0.00 | 0.00 | 48 | 1016.1 |
| 20260906181727 | 32 | 87 | 3.2 | 14.5 | 0.00 | 0.00 | 0.00 | 49 | 1016.1 |
| 20260906181020 | 32 | 101 | 4.8 | 9.7 | 0.00 | 0.00 | 0.00 | 50 | 1016.3 |
| 20260906180533 | 32 | 15 | 3.2 | 9.7 | 0.00 | 0.00 | 0.00 | 50 | 1016.2 |
| 20260906180219 | 32 | 347 | 1.6 | 16.1 | 0.00 | 0.00 | 0.00 | 50 | 1016.3 |
| 20260906175648 | 32 | 348 | 9.7 | 16.1 | 0.00 | 0.00 | 0.00 | 51 | 1016.3 |
| 20260906175035 | 31 | 83 | 3.2 | 9.7 | 0.00 | 0.00 | 0.00 | 53 | 1016.4 |
| 20260906174639 | 31 | 5 | 4.8 | 9.7 | 0.00 | 0.00 | 0.00 | 52 | 1016.4 |
| 20260906174116 | 31 | 32 | 1.6 | 12.9 | 0.00 | 0.00 | 0.00 | 52 | 1016.5 |
| 20260906173523 | 31 | 84 | 1.6 | 12.9 | 0.00 | 0.00 | 0.00 | 52 | 1016.7 |
| 20260906173219 | 31 | 331 | 1.6 | 9.7 | 0.00 | 0.00 | 0.00 | 51 | 1016.8 |
| 20260906172544 | 31 | 319 | 4.8 | 14.5 | 0.00 | 0.00 | 0.00 | 51 | 1016.8 |
| 20260906172044 | 31 | 5 | 3.2 | 14.5 | 0.00 | 0.00 | 0.00 | 54 | 1016.8 |
| 20260906171816 | 31 | 5 | 3.2 | 9.7 | 0.00 | 0.00 | 0.00 | 54 | 1016.8 |
| 20260906171022 | 31 | 31 | 4.8 | 14.5 | 0.00 | 0.00 | 0.00 | 54 | 1016.8 |
| 20260906170519 | 31 | 346 | 8.0 | 14.5 | 0.00 | 0.00 | 0.00 | 53 | 1017.0 |
| 20260906170357 | 31 | 34 | 3.2 | 16.1 | 0.00 | 0.00 | 0.00 | 54 | 1017.1 |
| 20260906165525 | 31 | 113 | 4.8 | 16.1 | 0.00 | 0.00 | 0.00 | 54 | 1017.2 |
| 20260906165043 | 31 | 61 | 4.8 | 16.1 | 0.00 | 0.00 | 0.00 | 55 | 1017.3 |
| 20260906164658 | 31 | 57 | 3.2 | 11.3 | 0.00 | 0.00 | 0.00 | 55 | 1017.4 |
| 20260906164119 | 31 | 100 | 3.2 | 12.9 | 0.00 | 0.00 | 0.00 | 55 | 1017.4 |
| 20260906163532 | 31 | 36 | 3.2 | 12.9 | 0.00 | 0.00 | 0.00 | 56 | 1017.3 |
| 20260906163121 | 31 | 347 | 6.4 | 14.5 | 0.00 | 0.00 | 0.00 | 56 | 1017.3 |
| 20260906162654 | 30 | 348 | 6.4 | 16.1 | 0.00 | 0.00 | 0.00 | 57 | 1017.4 |
| 20260906162032 | 30 | 330 | 4.8 | 16.1 | 0.00 | 0.00 | 0.00 | 58 | 1017.4 |
| 20260906161658 | 30 | 81 | 8.0 | 16.1 | 0.00 | 0.00 | 0.00 | 59 | 1017.2 |
| 20260906161152 | 30 | 339 | 8.0 | 16.1 | 0.00 | 0.00 | 0.00 | 58 | 1017.3 |
| 20260906160523 | 29 | 315 | 4.8 | 17.7 | 0.00 | 0.00 | 0.00 | 59 | 1017.1 |
| 20260906160230 | 29 | 339 | 8.0 | 16.1 | 0.00 | 0.00 | 0.00 | 62 | 1017.0 |
| 20260906155719 | 28 | 82 | 1.6 | 12.9 | 0.00 | 0.00 | 0.00 | 63 | 1017.1 |
| 20260906155030 | 28 | 306 | 1.6 | 14.5 | 0.00 | 0.00 | 0.00 | 63 | 1017.1 |
| 20260906154637 | 28 | 14 | 6.4 | 16.1 | 0.00 | 0.00 | 0.00 | 64 | 1017.1 |
| 20260906154156 | 28 | 16 | 4.8 | 20.9 | 0.00 | 0.00 | 0.00 | 65 | 1017.1 |
| 20260906153519 | 28 | 341 | 8.0 | 16.1 | 0.00 | 0.00 | 0.00 | 66 | 1017.0 |
| 20260906153326 | 27 | 23 | 8.0 | 17.7 | 0.00 | 0.00 | 0.00 | 66 | 1016.9 |
| 20260906152534 | 27 | 325 | 8.0 | 22.5 | 0.00 | 0.00 | 0.00 | 65 | 1017.0 |
| 20260906152036 | 27 | 355 | 14.5 | 22.5 | 0.00 | 0.00 | 0.00 | 63 | 1017.2 |
| 20260906151955 | 27 | 348 | 8.0 | 16.1 | 0.00 | 0.00 | 0.00 | 63 | 1017.1 |
| 20260906151023 | 27 | 342 | 9.7 | 17.7 | 0.00 | 0.00 | 0.00 | 63 | 1017.0 |
| 20260906150527 | 27 | 349 | 9.7 | 19.3 | 0.00 | 0.00 | 0.00 | 63 | 1017.0 |
| 20260906150139 | 27 | 334 | 12.9 | 19.3 | 0.00 | 0.00 | 0.00 | 64 | 1016.9 |
| 20260906145656 | 27 | 360 | 9.7 | 16.1 | 0.00 | 0.00 | 0.00 | 64 | 1016.8 |
| 20260906145038 | 26 | 340 | 9.7 | 17.7 | 0.00 | 0.00 | 0.00 | 65 | 1016.8 |
| 20260906144826 | 26 | 245 | 11.3 | 17.7 | 0.00 | 0.00 | 0.00 | 65 | 1016.9 |
| 20260906144024 | 26 | 240 | 9.7 | 19.3 | 0.00 | 0.00 | 0.00 | 65 | 1017.0 |
| 20260906143541 | 26 | 248 | 9.7 | 24.1 | 0.00 | 0.00 | 0.00 | 65 | 1016.9 |
| 20260906143205 | 27 | 343 | 11.3 | 24.1 | 0.00 | 0.00 | 0.00 | 65 | 1016.9 |
| 20260906142530 | 27 | 334 | 14.5 | 20.9 | 0.00 | 0.00 | 0.00 | 65 | 1016.8 |
| 20260906142034 | 27 | 309 | 0.0 | 3.2 | 0.00 | 0.00 | 0.00 | 64 | 1016.4 |
| 20260906141750 | 27 | 196 | 0.0 | 1.6 | 0.00 | 0.00 | 0.00 | 66 | 1016.1 |
| 20260906141027 | 26 | 196 | 0.0 | 3.2 | 0.00 | 0.00 | 0.00 | 66 | 1016.3 |
| 20260906140527 | 26 | 186 | 0.0 | 0.0 | 0.00 | 0.00 | 0.00 | 69 | 1016.3 |
| 20260906140323 | 26 | 186 | 0.0 | 1.6 | 0.00 | 0.00 | 0.00 | 71 | 1016.2 |
| 20260906135525 | 25 | 186 | 0.0 | 3.2 | 0.00 | 0.00 | 0.00 | 72 | 1016.1 |
| 20260906135027 | 24 | 360 | 0.0 | 0.0 | 0.00 | 0.00 | 0.00 | 75 | 1016.1 |
| 20260906134654 | 24 | 103 | 0.0 | 0.0 | 0.00 | 0.00 | 0.00 | 76 | 1016.1 |
| 20260906134024 | 23 | 95 | 0.0 | 0.0 | 0.00 | 0.00 | 0.00 | 77 | 1016.0 |
| 20260906133539 | 23 | 94 | 0.0 | 0.0 | 0.00 | 0.00 | 0.00 | 78 | 1015.9 |
| 20260906133156 | 23 | 93 | 0.0 | 0.0 | 0.00 | 0.00 | 0.00 | 78 | 1015.8 |
| 20260906132720 | 23 | 360 | 0.0 | 0.0 | 0.00 | 0.00 | 0.00 | 79 | 1015.8 |
| 20260906132034 | 23 | 95 | 0.0 | 0.0 | 0.00 | 0.00 | 0.00 | 80 | 1015.8 |
| 20260906131724 | 22 | 96 | 0.0 | 0.0 | 0.00 | 0.00 | 0.00 | 80 | 1015.8 |
| 20260906131031 | 22 | 96 | 0.0 | 0.0 | 0.00 | 0.00 | 0.00 | 81 | 1015.6 |
| 20260906130533 | 22 | 96 | 0.0 | 0.0 | 0.00 | 0.00 | 0.00 | 81 | 1015.5 |
| 20260906130216 | 22 | 94 | 0.0 | 0.0 | 0.00 | 0.00 | 0.00 | 82 | 1015.3 |
| 20260906125637 | 21 | 101 | 0.0 | 0.0 | 0.00 | 0.00 | 0.00 | 83 | 1015.2 |
| 20260906125029 | 21 | 119 | 0.0 | 0.0 | 0.00 | 0.00 | 0.00 | 84 | 1015.1 |
| 20260906124633 | 21 | 134 | 0.0 | 0.0 | 0.00 | 0.00 | 0.00 | 83 | 1015.1 |
| 20260906124138 | 21 | 132 | 0.0 | 0.0 | 0.00 | 0.00 | 0.00 | 83 | 1015.1 |
| 20260906123524 | 20 | 130 | 0.0 | 0.0 | 0.00 | 0.00 | 0.00 | 83 | 1014.9 |
| 20260906123139 | 20 | 130 | 0.0 | 0.0 | 0.00 | 0.00 | 0.00 | 82 | 1014.7 |
| 20260906122527 | 20 | 130 | 0.0 | 0.0 | 0.00 | 0.00 | 0.00 | 82 | 1014.6 |
| 20260906122023 | 20 | 129 | 0.0 | 0.0 | 0.00 | 0.00 | 0.00 | 82 | 1014.6 |
| 20260906121821 | 20 | 129 | 0.0 | 0.0 | 0.00 | 0.00 | 0.00 | 82 | 1014.6 |
| 20260906121027 | 20 | 128 | 0.0 | 0.0 | 0.00 | 0.00 | 0.00 | 82 | 1014.5 |
| 20260906120538 | 20 | 129 | 0.0 | 0.0 | 0.00 | 0.00 | 0.00 | 82 | 1014.3 |
| 20260906120257 | 21 | 130 | 0.0 | 0.0 | 0.00 | 0.00 | 0.00 | 81 | 1014.3 |
| 20260906115517 | 21 | 129 | 0.0 | 0.0 | 0.00 | 0.00 | 0.00 | 81 | 1014.3 |
| 20260906115032 | 21 | 131 | 0.0 | 0.0 | 0.00 | 0.00 | 0.00 | 81 | 1014.2 |
| 20260906114619 | 21 | 131 | 0.0 | 1.6 | 0.00 | 0.00 | 0.00 | 81 | 1014.1 |
| 20260906114219 | 21 | 132 | 0.0 | 3.2 | 0.00 | 0.00 | 0.00 | 81 | 1014.0 |
| 20260906113524 | 21 | 132 | 0.0 | 3.2 | 0.00 | 0.00 | 0.00 | 81 | 1014.0 |
| 20260906113320 | 21 | 132 | 0.0 | 3.2 | 0.00 | 0.00 | 0.00 | 82 | 1013.8 |
| 20260906112530 | 21 | 133 | 0.0 | 3.2 | 0.00 | 0.00 | 0.00 | 82 | 1013.8 |
| 20260906112041 | 21 | 133 | 0.0 | 3.2 | 0.00 | 0.00 | 0.00 | 82 | 1013.7 |
| 20260906111718 | 21 | 133 | 0.0 | 3.2 | 0.00 | 0.00 | 0.00 | 82 | 1013.7 |
| 20260906111150 | 21 | 134 | 0.0 | 3.2 | 0.00 | 0.00 | 0.00 | 82 | 1013.7 |
| 20260906110524 | 21 | 129 | 0.0 | 3.2 | 0.00 | 0.00 | 0.00 | 83 | 1013.8 |
| 20260906110145 | 21 | 128 | 0.0 | 1.6 | 0.00 | 0.00 | 0.00 | 83 | 1013.7 |
| 20260906105650 | 21 | 128 | 0.0 | 3.2 | 0.00 | 0.00 | 0.00 | 83 | 1013.7 |
| 20260906105031 | 21 | 128 | 0.0 | 3.2 | 0.00 | 0.00 | 0.00 | 83 | 1013.8 |
| 20260906104720 | 21 | 129 | 0.0 | 3.2 | 0.00 | 0.00 | 0.00 | 83 | 1013.8 |
| 20260906104024 | 21 | 130 | 0.0 | 3.2 | 0.00 | 0.00 | 0.00 | 82 | 1013.8 |
| 20260906103532 | 21 | 129 | 0.0 | 0.0 | 0.00 | 0.00 | 0.00 | 82 | 1013.8 |
| 20260906103214 | 21 | 130 | 0.0 | 1.6 | 0.00 | 0.00 | 0.00 | 81 | 1014.0 |
| 20260906102741 | 21 | 131 | 0.0 | 1.6 | 0.00 | 0.00 | 0.00 | 81 | 1013.9 |
| 20260906102028 | 21 | 131 | 0.0 | 0.0 | 0.00 | 0.00 | 0.00 | 81 | 1013.9 |
| 20260906101645 | 22 | 132 | 0.0 | 0.0 | 0.00 | 0.00 | 0.00 | 82 | 1014.0 |
| 20260906101118 | 22 | 132 | 0.0 | 0.0 | 0.00 | 0.00 | 0.00 | 82 | 1014.0 |
| 20260906100532 | 22 | 132 | 0.0 | 0.0 | 0.00 | 0.00 | 0.00 | 82 | 1014.1 |
| 20260906100154 | 21 | 132 | 0.0 | 0.0 | 0.00 | 0.00 | 0.00 | 82 | 1014.0 |
| 20260906095617 | 21 | 130 | 0.0 | 0.0 | 0.00 | 0.00 | 0.00 | 83 | 1014.0 |
| 20260906095023 | 21 | 130 | 0.0 | 0.0 | 0.00 | 0.00 | 0.00 | 83 | 1014.0 |
| 20260906094718 | 21 | 130 | 0.0 | 0.0 | 0.00 | 0.00 | 0.00 | 82 | 1014.0 |
| 20260906094029 | 21 | 130 | 0.0 | 0.0 | 0.00 | 0.00 | 0.00 | 82 | 1014.0 |
| 20260906093529 | 22 | 131 | 0.0 | 0.0 | 0.00 | 0.00 | 0.00 | 82 | 1013.9 |
| 20260906093219 | 22 | 131 | 0.0 | 0.0 | 0.00 | 0.00 | 0.00 | 81 | 1013.9 |
| 20260906092526 | 22 | 132 | 0.0 | 0.0 | 0.00 | 0.00 | 0.00 | 81 | 1013.8 |
| 20260906092039 | 22 | 132 | 0.0 | 0.0 | 0.00 | 0.00 | 0.00 | 81 | 1013.7 |
| 20260906091629 | 22 | 132 | 0.0 | 0.0 | 0.00 | 0.00 | 0.00 | 80 | 1013.7 |
| 20260906091149 | 21 | 132 | 0.0 | 0.0 | 0.00 | 0.00 | 0.00 | 80 | 1013.7 |
| 20260906090530 | 21 | 132 | 0.0 | 0.0 | 0.00 | 0.00 | 0.00 | 80 | 1013.6 |
| 20260906090138 | 21 | 133 | 0.0 | 0.0 | 0.00 | 0.00 | 0.00 | 80 | 1013.5 |
| 20260906085539 | 21 | 132 | 0.0 | 0.0 | 0.00 | 0.00 | 0.00 | 80 | 1013.7 |
| 20260906085043 | 21 | 69 | 0.0 | 0.0 | 0.00 | 0.00 | 0.00 | 80 | 1013.7 |
| 20260906084750 | 21 | 63 | 0.0 | 0.0 | 0.00 | 0.00 | 0.00 | 81 | 1013.7 |
| 20260906084026 | 21 | 58 | 0.0 | 0.0 | 0.00 | 0.00 | 0.00 | 81 | 1013.6 |
| 20260906083532 | 21 | 56 | 0.0 | 0.0 | 0.00 | 0.00 | 0.00 | 81 | 1013.6 |
| 20260906083122 | 21 | 54 | 0.0 | 0.0 | 0.00 | 0.00 | 0.00 | 81 | 1013.6 |
| 20260906082523 | 21 | 53 | 0.0 | 0.0 | 0.00 | 0.00 | 0.00 | 80 | 1013.6 |
| 20260906082025 | 21 | 57 | 0.0 | 0.0 | 0.00 | 0.00 | 0.00 | 80 | 1013.4 |
| 20260906081826 | 21 | 57 | 0.0 | 1.6 | 0.00 | 0.00 | 0.00 | 80 | 1013.5 |
| 20260906081026 | 21 | 63 | 0.0 | 1.6 | 0.00 | 0.00 | 0.00 | 80 | 1013.6 |
| 20260906080543 | 21 | 65 | 0.0 | 1.6 | 0.00 | 0.00 | 0.00 | 80 | 1013.6 |
| 20260906080350 | 21 | 63 | 0.0 | 1.6 | 0.00 | 0.00 | 0.00 | 80 | 1013.5 |
| 20260906075517 | 21 | 61 | 0.0 | 0.0 | 0.00 | 0.00 | 0.00 | 80 | 1013.5 |
| 20260906075030 | 21 | 59 | 0.0 | 3.2 | 0.00 | 0.00 | 0.00 | 80 | 1013.5 |
| 20260906074627 | 21 | 63 | 0.0 | 1.6 | 0.00 | 0.00 | 0.00 | 80 | 1013.5 |
| 20260906074027 | 22 | 67 | 0.0 | 0.0 | 0.00 | 0.00 | 0.00 | 80 | 1013.6 |
| 20260906073531 | 22 | 73 | 0.0 | 0.0 | 0.00 | 0.00 | 0.00 | 79 | 1013.6 |
| 20260906073134 | 22 | 87 | 0.0 | 0.0 | 0.00 | 0.00 | 0.00 | 79 | 1013.6 |
| 20260906072730 | 22 | 78 | 0.0 | 0.0 | 0.00 | 0.00 | 0.00 | 79 | 1013.7 |
| 20260906072023 | 22 | 78 | 0.0 | 0.0 | 0.00 | 0.00 | 0.00 | 79 | 1013.5 |
| 20260906071840 | 22 | 78 | 0.0 | 0.0 | 0.00 | 0.00 | 0.00 | 79 | 1013.6 |
| 20260906071027 | 22 | 78 | 0.0 | 1.6 | 0.00 | 0.00 | 0.00 | 79 | 1013.6 |
| 20260906070535 | 22 | 76 | 0.0 | 1.6 | 0.00 | 0.00 | 0.00 | 80 | 1013.5 |
| 20260906070213 | 22 | 73 | 0.0 | 4.8 | 0.00 | 0.00 | 0.00 | 81 | 1013.5 |
| 20260906065742 | 22 | 76 | 0.0 | 4.8 | 0.00 | 0.00 | 0.00 | 82 | 1013.5 |
| 20260906065022 | 21 | 68 | 0.0 | 1.6 | 0.00 | 0.00 | 0.00 | 83 | 1013.5 |
| 20260906064834 | 21 | 67 | 0.0 | 1.6 | 0.00 | 0.00 | 0.00 | 83 | 1013.6 |
| 20260906064023 | 21 | 67 | 0.0 | 4.8 | 0.00 | 0.00 | 0.00 | 84 | 1013.6 |
| 20260906063532 | 21 | 65 | 0.0 | 4.8 | 0.00 | 0.00 | 0.00 | 85 | 1013.5 |
| 20260906063238 | 21 | 65 | 0.0 | 3.2 | 0.00 | 0.00 | 0.00 | 86 | 1013.6 |
| 20260906062523 | 21 | 55 | 0.0 | 3.2 | 0.00 | 0.00 | 0.00 | 86 | 1013.6 |
| 20260906062028 | 21 | 49 | 0.0 | 4.8 | 0.00 | 0.00 | 0.00 | 86 | 1013.4 |
| 20260906061818 | 21 | 48 | 0.0 | 4.8 | 0.00 | 0.00 | 0.00 | 86 | 1013.4 |
| 20260906061029 | 21 | 50 | 1.6 | 4.8 | 0.00 | 0.00 | 0.00 | 86 | 1013.5 |
| 20260906060539 | 21 | 51 | 1.6 | 4.8 | 0.00 | 0.00 | 0.00 | 86 | 1013.4 |
| 20260906060216 | 21 | 47 | 0.0 | 3.2 | 0.00 | 0.00 | 0.00 | 86 | 1013.4 |
| 20260906055709 | 21 | 46 | 0.0 | 3.2 | 0.00 | 0.00 | 0.00 | 86 | 1013.4 |
| 20260906055043 | 21 | 49 | 0.0 | 3.2 | 0.00 | 0.00 | 0.00 | 86 | 1013.4 |
| 20260906054714 | 21 | 50 | 0.0 | 1.6 | 0.00 | 0.00 | 0.00 | 86 | 1013.4 |
| 20260906054024 | 22 | 49 | 0.0 | 4.8 | 0.00 | 0.00 | 0.00 | 86 | 1013.3 |
| 20260906053523 | 22 | 49 | 0.0 | 4.8 | 0.00 | 0.00 | 0.00 | 87 | 1013.4 |
| 20260906053230 | 22 | 41 | 0.0 | 1.6 | 0.00 | 0.00 | 0.00 | 87 | 1013.5 |
| 20260906052537 | 21 | 87 | 0.0 | 1.6 | 0.00 | 0.00 | 0.00 | 87 | 1013.4 |
| 20260906052037 | 22 | 88 | 0.0 | 1.6 | 0.00 | 0.00 | 0.00 | 87 | 1013.4 |
| 20260906051718 | 22 | 88 | 0.0 | 0.0 | 0.00 | 0.00 | 0.00 | 86 | 1013.5 |
| 20260906051217 | 22 | 92 | 0.0 | 0.0 | 0.00 | 0.00 | 0.00 | 86 | 1013.5 |
| 20260906050517 | 22 | 94 | 0.0 | 0.0 | 0.00 | 0.00 | 0.00 | 86 | 1013.5 |
| 20260906050129 | 22 | 96 | 0.0 | 0.0 | 0.00 | 0.00 | 0.00 | 86 | 1013.5 |
| 20260906045533 | 22 | 111 | 0.0 | 0.0 | 0.00 | 0.00 | 0.00 | 85 | 1013.5 |
| 20260906045028 | 22 | 115 | 0.0 | 0.0 | 0.00 | 0.00 | 0.00 | 85 | 1013.5 |
| 20260906044657 | 22 | 120 | 0.0 | 1.6 | 0.00 | 0.00 | 0.00 | 85 | 1013.5 |
| 20260906044033 | 22 | 119 | 0.0 | 1.6 | 0.00 | 0.00 | 0.00 | 85 | 1013.7 |
| 20260906043530 | 22 | 119 | 0.0 | 0.0 | 0.00 | 0.00 | 0.00 | 85 | 1013.7 |
| 20260906043128 | 22 | 115 | 0.0 | 1.6 | 0.00 | 0.00 | 0.00 | 85 | 1013.6 |
| 20260906042646 | 22 | 109 | 0.0 | 1.6 | 0.00 | 0.00 | 0.00 | 85 | 1013.6 |
| 20260906042030 | 22 | 111 | 0.0 | 0.0 | 0.00 | 0.00 | 0.00 | 85 | 1013.7 |
| 20260906041740 | 22 | 124 | 0.0 | 0.0 | 0.00 | 0.00 | 0.00 | 84 | 1013.6 |
| 20260906041021 | 22 | 216 | 0.0 | 0.0 | 0.00 | 0.00 | 0.00 | 84 | 1013.5 |
| 20260906040539 | 22 | 217 | 0.0 | 0.0 | 0.00 | 0.00 | 0.00 | 84 | 1013.6 |
| 20260906040359 | 23 | 218 | 0.0 | 0.0 | 0.00 | 0.00 | 0.00 | 85 | 1013.7 |
| 20260906035523 | 23 | 219 | 0.0 | 0.0 | 0.00 | 0.00 | 0.00 | 85 | 1013.6 |
| 20260906035031 | 22 | 219 | 0.0 | 0.0 | 0.00 | 0.00 | 0.00 | 85 | 1013.5 |
| 20260906034658 | 22 | 218 | 0.0 | 0.0 | 0.00 | 0.00 | 0.00 | 85 | 1013.5 |
| 20260906034147 | 22 | 217 | 0.0 | 0.0 | 0.00 | 0.00 | 0.00 | 85 | 1013.5 |
| 20260906033528 | 22 | 218 | 0.0 | 0.0 | 0.00 | 0.00 | 0.00 | 85 | 1013.5 |
| 20260906033148 | 22 | 218 | 0.0 | 0.0 | 0.00 | 0.00 | 0.00 | 85 | 1013.6 |
| 20260906032530 | 22 | 219 | 0.0 | 0.0 | 0.00 | 0.00 | 0.00 | 85 | 1013.5 |
| 20260906032045 | 23 | 217 | 0.0 | 0.0 | 0.00 | 0.00 | 0.00 | 85 | 1013.4 |
| 20260906031632 | 23 | 219 | 0.0 | 0.0 | 0.00 | 0.00 | 0.00 | 85 | 1013.3 |
| 20260906031218 | 23 | 219 | 0.0 | 0.0 | 0.00 | 0.00 | 0.00 | 85 | 1013.4 |
| 20260906030532 | 23 | 217 | 0.0 | 3.2 | 0.00 | 0.00 | 0.00 | 84 | 1013.3 |
| 20260906030240 | 23 | 213 | 0.0 | 3.2 | 0.00 | 0.00 | 0.00 | 84 | 1013.3 |
| 20260906025532 | 23 | 157 | 0.0 | 1.6 | 0.00 | 0.00 | 0.00 | 84 | 1013.2 |
| 20260906025040 | 23 | 159 | 0.0 | 1.6 | 0.00 | 0.00 | 0.00 | 84 | 1013.0 |
| 20260906024720 | 23 | 160 | 0.0 | 1.6 | 0.00 | 0.00 | 0.00 | 83 | 1013.1 |
| 20260906024039 | 23 | 160 | 0.0 | 1.6 | 0.00 | 0.00 | 0.00 | 83 | 1013.0 |
| 20260906023539 | 23 | 161 | 0.0 | 1.6 | 0.00 | 0.00 | 0.00 | 83 | 1012.9 |
| 20260906023120 | 23 | 177 | 0.0 | 0.0 | 0.00 | 0.00 | 0.00 | 84 | 1012.9 |
| 20260906022528 | 23 | 178 | 0.0 | 0.0 | 0.00 | 0.00 | 0.00 | 84 | 1013.0 |
| 20260906022036 | 23 | 178 | 0.0 | 0.0 | 0.00 | 0.00 | 0.00 | 84 | 1012.9 |
| 20260906021731 | 23 | 179 | 0.0 | 3.2 | 0.00 | 0.00 | 0.00 | 84 | 1012.9 |
| 20260906021202 | 23 | 178 | 0.0 | 4.8 | 0.00 | 0.00 | 0.00 | 84 | 1012.8 |
| 20260906020529 | 23 | 189 | 0.0 | 4.8 | 0.00 | 0.00 | 0.00 | 84 | 1012.8 |
| 20260906020224 | 24 | 190 | 0.0 | 1.6 | 0.00 | 0.00 | 0.00 | 83 | 1012.5 |
| 20260906015712 | 24 | 76 | 0.0 | 0.0 | 0.00 | 0.00 | 0.00 | 83 | 1012.4 |
| 20260906015024 | 24 | 75 | 0.0 | 0.0 | 0.00 | 0.00 | 0.00 | 83 | 1012.4 |
| 20260906014628 | 24 | 76 | 0.0 | 0.0 | 0.00 | 0.00 | 0.00 | 83 | 1012.3 |
| 20260906014156 | 24 | 75 | 0.0 | 0.0 | 0.00 | 0.00 | 0.00 | 82 | 1012.3 |
| 20260906013521 | 24 | 76 | 0.0 | 0.0 | 0.00 | 0.00 | 0.00 | 81 | 1012.2 |
| 20260906013159 | 25 | 77 | 0.0 | 0.0 | 0.00 | 0.00 | 0.00 | 81 | 1012.3 |
| 20260906012718 | 25 | 71 | 0.0 | 0.0 | 0.00 | 0.00 | 0.00 | 80 | 1012.4 |
| 20260906012036 | 25 | 72 | 0.0 | 3.2 | 0.00 | 0.00 | 0.00 | 79 | 1012.3 |
| 20260906011628 | 25 | 71 | 0.0 | 3.2 | 0.00 | 0.00 | 0.00 | 78 | 1012.2 |
| 20260906011041 | 25 | 84 | 0.0 | 6.4 | 0.00 | 0.00 | 0.00 | 78 | 1012.3 |
| 20260906010543 | 25 | 60 | 0.0 | 6.4 | 0.00 | 0.00 | 0.00 | 78 | 1012.1 |
| 20260906010319 | 25 | 43 | 0.0 | 3.2 | 0.00 | 0.00 | 0.00 | 79 | 1012.3 |
| 20260906005531 | 26 | 55 | 0.0 | 4.8 | 0.00 | 0.00 | 0.00 | 79 | 1012.2 |
| 20260906005039 | 26 | 11 | 0.0 | 4.8 | 0.00 | 0.00 | 0.00 | 78 | 1012.0 |
| 20260906004958 | 26 | 49 | 0.0 | 6.4 | 0.00 | 0.00 | 0.00 | 79 | 1012.0 |
| 20260906004024 | 26 | 50 | 1.6 | 6.4 | 0.00 | 0.00 | 0.00 | 78 | 1011.8 |
| 20260906003524 | 26 | 204 | 0.0 | 6.4 | 0.00 | 0.00 | 0.00 | 80 | 1012.1 |
| 20260906003134 | 25 | 360 | 0.0 | 4.8 | 0.00 | 0.00 | 0.00 | 80 | 1012.0 |
| 20260906002543 | 25 | 145 | 0.0 | 1.6 | 0.00 | 0.00 | 0.00 | 79 | 1012.1 |
| 20260906002042 | 25 | 144 | 0.0 | 1.6 | 0.00 | 0.00 | 0.00 | 79 | 1012.2 |
| 20260906001619 | 25 | 150 | 0.0 | 3.2 | 0.00 | 0.00 | 0.00 | 77 | 1012.2 |
| 20260906001209 | 25 | 150 | 0.0 | 3.2 | 0.00 | 0.00 | 0.00 | 77 | 1012.2 |
| 20260906000521 | 25 | 155 | 0.0 | 8.0 | 0.00 | 0.00 | 0.00 | 76 | 1012.1 |
| 20260906000215 | 25 | 360 | 3.2 | 8.0 | 0.00 | 0.00 | 0.00 | 76 | 1012.2 |
| 20260905235645 | 25 | 148 | 1.6 | 4.8 | 0.00 | 0.00 | 0.00 | 76 | 1012.0 |
| 20260905235028 | 25 | 125 | 0.0 | 3.2 | 0.00 | 0.00 | 0.00 | 75 | 1011.8 |
| 20260905234646 | 25 | 141 | 1.6 | 6.4 | 0.00 | 0.00 | 0.00 | 74 | 1011.8 |
| 20260905234218 | 25 | 360 | 1.6 | 8.0 | 0.00 | 0.00 | 0.00 | 74 | 1012.0 |
| 20260905233529 | 25 | 360 | 0.0 | 12.9 | 0.00 | 0.00 | 0.00 | 74 | 1012.1 |
| 20260905233132 | 25 | 360 | 4.8 | 12.9 | 0.00 | 0.00 | 0.00 | 74 | 1012.1 |
| 20260905232617 | 25 | 156 | 6.4 | 12.9 | 0.00 | 0.00 | 0.00 | 73 | 1012.3 |
| 20260905232024 | 25 | 154 | 6.4 | 14.5 | 0.00 | 0.00 | 0.00 | 73 | 1012.5 |
| 20260905231745 | 26 | 176 | 6.4 | 16.1 | 0.00 | 0.00 | 0.00 | 72 | 1012.7 |
| 20260905231024 | 26 | 155 | 9.7 | 19.3 | 0.00 | 0.00 | 0.00 | 70 | 1012.9 |
| 20260905230532 | 26 | 167 | 9.7 | 24.1 | 0.00 | 0.00 | 0.00 | 69 | 1013.4 |
| 20260905230233 | 27 | 169 | 14.5 | 25.7 | 0.00 | 0.00 | 0.00 | 66 | 1013.7 |
| 20260905225733 | 27 | 180 | 14.5 | 20.9 | 0.00 | 0.00 | 0.00 | 63 | 1013.5 |
| 20260905225021 | 28 | 180 | 8.0 | 25.7 | 0.00 | 0.00 | 0.00 | 61 | 1013.5 |
| 20260905224851 | 28 | 271 | 14.5 | 25.7 | 0.00 | 0.00 | 0.00 | 58 | 1013.8 |
| 20260905224025 | 30 | 272 | 9.7 | 27.4 | 0.00 | 0.00 | 0.00 | 54 | 1013.9 |
| 20260905223526 | 31 | 259 | 14.5 | 27.4 | 0.00 | 0.00 | 0.00 | 49 | 1013.6 |
| 20260905223216 | 32 | 290 | 4.8 | 11.3 | 0.00 | 0.00 | 0.00 | 47 | 1013.1 |
| 20260905222616 | 33 | 121 | 0.0 | 3.2 | 0.00 | 0.00 | 0.00 | 46 | 1012.6 |
| 20260905222018 | 33 | 121 | 0.0 | 6.4 | 0.00 | 0.00 | 0.00 | 45 | 1012.2 |
| 20260905221642 | 33 | 108 | 3.2 | 12.9 | 0.00 | 0.00 | 0.00 | 44 | 1012.0 |
| 20260905221039 | 33 | 115 | 3.2 | 14.5 | 0.00 | 0.00 | 0.00 | 43 | 1012.0 |
| 20260905220543 | 33 | 118 | 6.4 | 19.3 | 0.00 | 0.00 | 0.00 | 42 | 1011.6 |
| 20260905220321 | 33 | 115 | 11.3 | 19.3 | 0.00 | 0.00 | 0.00 | 42 | 1011.7 |
| 20260905215525 | 33 | 128 | 4.8 | 12.9 | 0.00 | 0.00 | 0.00 | 42 | 1012.1 |
| 20260905215024 | 34 | 141 | 6.4 | 14.5 | 0.00 | 0.00 | 0.00 | 41 | 1012.3 |
| 20260905214701 | 34 | 132 | 8.0 | 14.5 | 0.00 | 0.00 | 0.00 | 40 | 1012.1 |
| 20260905214157 | 35 | 142 | 3.2 | 14.5 | 0.00 | 0.00 | 0.00 | 41 | 1012.2 |
| 20260905213525 | 35 | 127 | 6.4 | 17.7 | 0.00 | 0.00 | 0.00 | 38 | 1012.2 |
| 20260905213217 | 35 | 113 | 12.9 | 19.3 | 0.00 | 0.00 | 0.00 | 38 | 1012.2 |
| 20260905212700 | 35 | 122 | 11.3 | 19.3 | 0.00 | 0.00 | 0.00 | 38 | 1012.2 |
| 20260905212029 | 36 | 156 | 9.7 | 20.9 | 0.00 | 0.00 | 0.00 | 38 | 1012.0 |
| 20260905211637 | 36 | 115 | 11.3 | 22.5 | 0.00 | 0.00 | 0.00 | 37 | 1012.0 |
| 20260905211057 | 36 | 122 | 12.9 | 22.5 | 0.00 | 0.00 | 0.00 | 36 | 1012.0 |
| 20260905210524 | 36 | 112 | 11.3 | 20.9 | 0.00 | 0.00 | 0.00 | 38 | 1011.9 |
| 20260905210225 | 36 | 138 | 11.3 | 20.9 | 0.00 | 0.00 | 0.00 | 38 | 1012.4 |
| 20260905205618 | 36 | 123 | 9.7 | 19.3 | 0.00 | 0.00 | 0.00 | 38 | 1012.6 |
| 20260905205029 | 36 | 142 | 8.0 | 20.9 | 0.00 | 0.00 | 0.00 | 38 | 1012.6 |
| 20260905204720 | 36 | 121 | 11.3 | 20.9 | 0.00 | 0.00 | 0.00 | 39 | 1012.8 |
| 20260905204216 | 36 | 121 | 8.0 | 17.7 | 0.00 | 0.00 | 0.00 | 39 | 1012.8 |
| 20260905203523 | 36 | 126 | 11.3 | 20.9 | 0.00 | 0.00 | 0.00 | 40 | 1012.8 |
| 20260905203125 | 35 | 137 | 11.3 | 24.1 | 0.00 | 0.00 | 0.00 | 39 | 1012.6 |
| 20260905202531 | 36 | 153 | 9.7 | 24.1 | 0.00 | 0.00 | 0.00 | 39 | 1012.7 |
| 20260905202043 | 36 | 151 | 9.7 | 20.9 | 0.00 | 0.00 | 0.00 | 40 | 1012.7 |
| 20260905201653 | 36 | 178 | 8.0 | 24.1 | 0.00 | 0.00 | 0.00 | 39 | 1012.9 |
| 20260905201137 | 36 | 121 | 14.5 | 24.1 | 0.00 | 0.00 | 0.00 | 38 | 1012.9 |
| 20260905200520 | 35 | 138 | 14.5 | 22.5 | 0.00 | 0.00 | 0.00 | 40 | 1013.1 |
| 20260905200331 | 35 | 173 | 14.5 | 19.3 | 0.00 | 0.00 | 0.00 | 40 | 1013.2 |